Lid_Strength_Index
-1 -1 -1 -2 -1 -1 -1 -1 -1 -1 -1 -1 -0 0 0 0 1 3 6 4 3 1 1 4 5 6 6 6 5 5 9 10 9 9 8 7 7 5 3 5 4 4 4 3 2
-1 -1 -1 -1 -1 -2 -1 -1 -1 -1 -1 -1 -1 -1 -0 0 3 5 2 1 1 0 4 6 7 7 8 7 6 6 9 9 6 7 8 7 7 5 6 5 5 5 3 2 2
-1 -1 -1 -1 -1 -1 -1 -1 -1 -1 -1 -1 -1 -1 -1 -0 4 5 -0 -0 0 1 3 5 6 7 8 6 7 7 9 7 8 8 8 8 7 6 6 7 5 5 5 4 3
-0 -0 -0 -0 -1 -1 -1 -1 -1 -1 -1 -1 -1 -1 -1 1 10 2 -1 -0 -0 1 4 6 7 9 9 8 7 9 7 6 8 8 9 9 7 7 6 5 4 3 3 3 4
1 1 0 -0 -0 -1 -1 -0 -1 -1 -1 -1 -1 -1 0 5 5 -1 -1 -1 2 3 5 7 8 9 10 8 8 8 8 6 6 8 9 8 9 8 7 5 3 3 3 4 4
-1 1 1 0 0 -0 -0 -0 -0 -1 -1 -1 -1 -0 2 8 0 -0 -0 0 2 3 5 6 8 8 10 9 10 8 8 7 7 8 8 10 9 8 7 6 6 4 4 4 3
-0 -0 1 1 0 0 0 -0 0 -0 -1 -1 -0 1 4 5 0 -0 -0 1 1 2 4 4 6 9 9 11 9 10 12 10 8 7 8 9 11 10 7 7 8 7 6 4 3
-1 -0 0 1 1 1 0 0 0 0 -0 -0 -0 1 6 1 -0 1 0 1 0 0 2 2 3 7 9 9 11 12 11 13 10 9 10 11 13 9 8 8 8 7 7 6 3
-1 -1 0 0 0 1 1 0 0 -0 1 0 2 3 7 1 3 1 1 3 2 1 1 1 3 7 9 12 14 13 15 14 12 9 10 11 12 10 9 10 9 8 7 7 5
-2 -1 -1 -0 -0 0 2 1 1 0 0 2 3 6 5 6 3 2 1 2 3 3 5 5 6 8 10 13 18 17 16 14 13 11 12 12 13 10 11 11 11 10 9 7 7
-1 -1 -2 -1 -1 -1 1 2 5 5 3 6 7 7 5 4 2 3 2 3 4 5 9 7 10 12 10 10 11 13 14 15 13 12 14 13 13 12 10 11 11 10 10 9 8
-2 -1 -1 -1 -1 -1 -0 4 5 4 8 5 5 5 4 4 7 4 2 6 7 10 7 10 12 8 8 9 11 12 14 14 12 13 13 13 14 12 12 11 11 10 9 9 9
-1 -1 -1 -1 -1 -0 1 2 -0 1 8 7 6 6 6 4 7 6 4 6 8 9 9 11 9 7 8 9 11 11 13 14 14 13 12 13 15 14 12 12 11 11 10 9 8
-1 -1 -1 -1 1 0 2 -0 -1 -0 11 11 8 7 6 5 8 4 3 6 8 10 9 9 7 9 9 11 10 13 10 11 13 13 18 14 19 14 13 13 12 12 11 10 9
-1 -1 -1 -2 1 3 1 -1 -1 2 18 9 8 3 4 7 7 7 3 5 9 9 9 11 10 10 11 10 8 11 9 11 11 14 13 15 17 15 13 15 13 12 11 10 10
-1 -1 -1 -0 -0 1 -1 -1 2 13 18 12 8 9 9 7 8 6 6 4 5 8 8 9 7 8 8 8 8 8 10 11 11 12 17 15 16 16 14 14 13 13 12 12 11
-1 -1 -1 -1 3 -1 -1 3 13 16 10 13 12 9 9 10 9 8 9 10 11 14 14 10 10 8 7 10 8 9 12 16 17 17 19 13 15 15 12 13 12 12 12 11 10
-1 -1 -1 -0 -1 -1 3 9 17 11 12 9 10 10 12 10 10 9 10 11 8 9 12 14 16 10 8 9 12 11 11 15 19 18 17 14 17 14 11 11 11 11 10 11 11
-1 -0 0 -0 -1 0 6 14 13 12 9 11 10 13 13 11 10 10 11 11 9 8 13 14 13 8 8 7 8 11 14 9 14 16 16 14 13 11 10 10 11 10 11 11 11
1 2 2 -1 -0 4 9 12 11 8 8 9 13 11 14 12 11 11 11 9 9 7 7 11 15 9 8 7 7 9 8 14 14 19 19 16 15 14 12 11 10 10 11 11 11
2 6 2 -0 1 7 12 12 10 8 8 10 12 12 11 12 11 12 11 9 7 7 7 9 13 12 9 11 12 11 13 12 11 13 17 18 15 10 10 9 10 11 11 11 11
4 9 2 1 9 8 10 10 8 9 8 8 8 10 11 10 12 12 12 10 7 7 10 8 11 15 13 10 9 9 11 12 16 17 14 14 15 10 9 9 9 11 10 11 12
7 7 3 2 11 10 9 10 9 9 10 9 10 9 8 11 13 11 11 8 8 8 9 8 13 16 14 12 11 12 10 10 11 12 16 17 15 9 9 9 9 10 11 11 12
5 9 7 6 6 9 10 11 11 9 9 9 9 8 9 11 9 12 11 9 8 8 8 8 11 13 15 13 13 14 12 11 13 17 15 14 12 11 10 9 10 10 10 11 12
5 9 8 10 9 8 9 10 11 11 9 9 10 9 10 12 11 12 9 10 8 8 8 10 14 12 12 12 11 12 13 12 14 14 16 13 13 10 9 9 9 10 11 12 13
7 8 7 8 8 8 9 11 11 11 10 11 10 10 10 11 10 11 9 9 10 9 9 8 13 12 14 12 12 13 12 12 12 12 13 13 13 8 8 8 10 10 11 12 13
4 4 5 8 8 9 9 10 11 10 9 9 9 9 10 9 7 7 7 7 7 9 10 11 12 13 15 12 13 15 13 11 11 11 12 15 12 9 10 10 10 10 10 11 12